Time,TemperatureF,DewpointF,PressureIn,WindDirection,WindDirectionDegrees,WindSpeedMPH,WindSpeedGustMPH,Humidity,HourlyPrecipIn,Conditions,Clouds,dailyrainin,SoftwareType,DateUTC
2013-04-07 00:00:00,70.9,60.6,29.53,NE,45,0.0,0.0,70,0.00,,,0.02,WUHU21623XXSP,2013-04-07 04:00:00,
2013-04-07 00:05:00,70.9,61.0,29.53,NE,45,0.0,0.0,71,0.00,,,0.00,WUHU21623XXSP,2013-04-07 04:05:00,
2013-04-07 00:10:00,70.9,60.6,29.53,NNE,22,0.0,0.0,70,0.00,,,0.00,WUHU21623XXSP,2013-04-07 04:10:00,
2013-04-07 00:15:00,70.9,61.0,29.53,ENE,67,0.0,0.0,71,0.00,,,0.00,WUHU21623XXSP,2013-04-07 04:15:00,
2013-04-07 00:20:00,70.9,61.0,29.53,ENE,67,0.0,0.0,71,0.00,,,0.00,WUHU21623XXSP,2013-04-07 04:20:00,
2013-04-07 00:25:00,70.9,61.0,29.53,NE,45,0.0,0.0,71,0.00,,,0.00,WUHU21623XXSP,2013-04-07 04:25:00,
2013-04-07 00:30:00,71.1,61.6,29.53,ESE,112,0.0,0.0,72,0.00,,,0.00,WUHU21623XXSP,2013-04-07 04:30:00,
2013-04-07 00:35:00,71.2,61.7,29.52,East,90,0.0,0.0,72,0.00,,,0.00,WUHU21623XXSP,2013-04-07 04:35:00,
2013-04-07 00:40:00,71.2,61.7,29.52,ESE,112,0.0,0.0,72,0.00,,,0.00,WUHU21623XXSP,2013-04-07 04:40:00,
2013-04-07 00:45:00,71.2,61.7,29.52,East,90,0.0,0.0,72,0.00,,,0.00,WUHU21623XXSP,2013-04-07 04:45:00,
2013-04-07 00:50:00,71.2,61.4,29.52,ENE,67,0.0,0.0,71,0.00,,,0.00,WUHU21623XXSP,2013-04-07 04:50:00,
2013-04-07 00:55:00,71.2,61.4,29.51,ESE,112,0.0,0.0,71,0.00,,,0.00,WUHU21623XXSP,2013-04-07 04:55:00,
2013-04-07 01:00:00,71.2,61.0,29.51,NE,45,0.0,0.0,70,0.00,,,0.00,WUHU21623XXSP,2013-04-07 05:00:00,
2013-04-07 01:05:00,70.9,60.6,29.51,ESE,112,0.0,0.0,70,0.00,,,0.00,WUHU21623XXSP,2013-04-07 05:05:00,
2013-04-07 01:10:00,70.9,60.6,29.51,SE,135,0.0,0.0,70,0.00,,,0.00,WUHU21623XXSP,2013-04-07 05:10:00,
2013-04-07 01:15:00,70.9,60.6,29.51,ENE,67,0.0,0.0,70,0.00,,,0.00,WUHU21623XXSP,2013-04-07 05:15:00,
2013-04-07 01:20:00,70.7,60.4,29.51,East,90,0.0,0.0,70,0.00,,,0.00,WUHU21623XXSP,2013-04-07 05:20:00,
2013-04-07 01:25:00,70.7,60.4,29.51,East,90,0.0,0.0,70,0.00,,,0.00,WUHU21623XXSP,2013-04-07 05:25:00,
2013-04-07 01:30:00,70.7,60.4,29.50,East,90,0.0,0.0,70,0.00,,,0.00,WUHU21623XXSP,2013-04-07 05:30:00,
2013-04-07 01:36:00,70.7,60.4,29.50,NE,45,0.0,0.0,70,0.00,,,0.00,WUHU21623XXSP,2013-04-07 05:36:00,
2013-04-07 01:41:00,70.7,60.8,29.50,ENE,67,0.0,0.0,71,0.00,,,0.00,WUHU21623XXSP,2013-04-07 05:41:00,
2013-04-07 01:46:00,70.9,61.4,29.50,NE,45,0.0,0.0,72,0.00,,,0.00,WUHU21623XXSP,2013-04-07 05:46:00,
2013-04-07 01:51:00,70.9,61.4,29.50,ESE,112,0.0,0.0,72,0.00,,,0.00,WUHU21623XXSP,2013-04-07 05:51:00,
2013-04-07 01:56:00,70.9,61.4,29.50,ESE,112,0.0,0.0,72,0.00,,,0.00,WUHU21623XXSP,2013-04-07 05:56:00,
2013-04-07 02:01:00,70.7,61.2,29.50,SE,135,0.0,0.0,72,0.00,,,0.00,WUHU21623XXSP,2013-04-07 06:01:00,
2013-04-07 02:06:00,70.5,61.0,29.50,ENE,67,0.0,0.0,72,0.00,,,0.00,WUHU21623XXSP,2013-04-07 06:06:00,
2013-04-07 02:11:00,70.5,61.4,29.50,NE,45,0.0,0.0,73,0.00,,,0.00,WUHU21623XXSP,2013-04-07 06:11:00,
2013-04-07 02:16:00,70.3,61.6,29.50,NE,45,0.0,0.0,74,0.00,,,0.00,WUHU21623XXSP,2013-04-07 06:16:00,
2013-04-07 02:22:00,70.2,61.8,29.50,NE,45,0.0,0.0,75,0.00,,,0.00,WUHU21623XXSP,2013-04-07 06:22:00,
2013-04-07 02:27:00,69.8,61.8,29.48,NE,45,0.0,0.0,76,0.00,,,0.00,WUHU21623XXSP,2013-04-07 06:27:00,
2013-04-07 02:32:00,69.6,61.6,29.48,ENE,67,0.0,0.0,76,0.00,,,0.00,WUHU21623XXSP,2013-04-07 06:32:00,
2013-04-07 02:37:00,69.6,61.6,29.48,ENE,67,0.0,0.0,76,0.00,,,0.00,WUHU21623XXSP,2013-04-07 06:37:00,
2013-04-07 02:42:00,70.0,62.0,29.48,ESE,112,0.0,0.0,76,0.00,,,0.00,WUHU21623XXSP,2013-04-07 06:42:00,
2013-04-07 02:47:00,70.2,61.8,29.48,NE,45,0.0,0.0,75,0.00,,,0.00,WUHU21623XXSP,2013-04-07 06:47:00,
2013-04-07 02:52:00,70.2,61.8,29.47,ESE,112,0.0,0.0,75,0.00,,,0.00,WUHU21623XXSP,2013-04-07 06:52:00,
2013-04-07 02:57:00,70.3,61.6,29.47,ENE,67,0.0,0.0,74,0.00,,,0.00,WUHU21623XXSP,2013-04-07 06:57:00,
2013-04-07 03:02:00,70.2,61.4,29.47,NNE,22,0.0,0.0,74,0.00,,,0.00,WUHU21623XXSP,2013-04-07 07:02:00,
2013-04-07 03:07:00,70.2,61.4,29.47,ENE,67,0.0,0.0,74,0.00,,,0.00,WUHU21623XXSP,2013-04-07 07:07:00,
2013-04-07 03:12:00,70.2,61.8,29.47,NE,45,0.0,0.0,75,0.00,,,0.00,WUHU21623XXSP,2013-04-07 07:12:00,
2013-04-07 03:17:00,70.2,61.8,29.47,ESE,112,0.0,0.0,75,0.00,,,0.00,WUHU21623XXSP,2013-04-07 07:17:00,
2013-04-07 03:22:00,70.3,61.6,29.47,ENE,67,0.0,0.0,74,0.00,,,0.00,WUHU21623XXSP,2013-04-07 07:22:00,
2013-04-07 03:27:00,70.3,61.6,29.47,NE,45,0.0,0.0,74,0.00,,,0.00,WUHU21623XXSP,2013-04-07 07:27:00,
2013-04-07 03:34:00,70.3,61.6,29.47,ENE,67,0.0,0.0,74,0.00,,,0.00,WUHU21623XXSP,2013-04-07 07:34:00,
2013-04-07 03:39:00,70.3,62.0,29.47,East,90,0.0,0.0,75,0.00,,,0.00,WUHU21623XXSP,2013-04-07 07:39:00,
2013-04-07 03:44:00,70.3,62.0,29.47,ESE,112,0.0,0.0,75,0.00,,,0.00,WUHU21623XXSP,2013-04-07 07:44:00,
2013-04-07 03:49:00,70.2,61.8,29.47,NE,45,0.0,0.0,75,0.00,,,0.00,WUHU21623XXSP,2013-04-07 07:49:00,
2013-04-07 03:54:00,70.0,62.0,29.47,ENE,67,0.0,0.0,76,0.00,,,0.00,WUHU21623XXSP,2013-04-07 07:54:00,
2013-04-07 03:59:00,70.0,61.6,29.47,East,90,0.0,0.0,75,0.00,,,0.00,WUHU21623XXSP,2013-04-07 07:59:00,
2013-04-07 04:04:00,70.0,61.6,29.47,East,90,0.0,0.0,75,0.00,,,0.00,WUHU21623XXSP,2013-04-07 08:04:00,
2013-04-07 04:09:00,70.0,61.6,29.47,East,90,0.0,0.0,75,0.00,,,0.00,WUHU21623XXSP,2013-04-07 08:09:00,
2013-04-07 04:14:00,70.0,61.6,29.47,ESE,112,0.0,0.0,75,0.00,,,0.00,WUHU21623XXSP,2013-04-07 08:14:00,
2013-04-07 04:19:00,70.0,61.6,29.47,East,90,0.0,0.0,75,0.00,,,0.00,WUHU21623XXSP,2013-04-07 08:19:00,
2013-04-07 04:24:00,70.0,61.6,29.47,NE,45,0.0,0.0,75,0.00,,,0.00,WUHU21623XXSP,2013-04-07 08:24:00,
2013-04-07 04:29:00,70.0,61.6,29.46,NE,45,0.0,0.0,75,0.00,,,0.00,WUHU21623XXSP,2013-04-07 08:29:00,
2013-04-07 04:34:00,70.0,61.6,29.47,ENE,67,0.0,0.0,75,0.00,,,0.00,WUHU21623XXSP,2013-04-07 08:34:00,
2013-04-07 04:39:00,70.0,62.0,29.47,NE,45,0.0,0.0,76,0.00,,,0.00,WUHU21623XXSP,2013-04-07 08:39:00,
2013-04-07 04:44:00,70.0,61.6,29.47,NE,45,0.0,0.0,75,0.00,,,0.00,WUHU21623XXSP,2013-04-07 08:44:00,
2013-04-07 04:49:00,70.0,61.6,29.46,NE,45,0.0,0.0,75,0.00,,,0.00,WUHU21623XXSP,2013-04-07 08:49:00,
2013-04-07 04:54:00,70.0,61.2,29.46,NE,45,0.0,0.0,74,0.00,,,0.00,WUHU21623XXSP,2013-04-07 08:54:00,
2013-04-07 04:59:00,70.0,61.2,29.46,NE,45,0.0,0.0,74,0.00,,,0.00,WUHU21623XXSP,2013-04-07 08:59:00,
2013-04-07 05:04:00,70.0,61.2,29.47,NE,45,0.0,0.0,74,0.00,,,0.00,WUHU21623XXSP,2013-04-07 09:04:00,
2013-04-07 05:10:00,70.0,61.6,29.47,ENE,67,0.0,0.0,75,0.00,,,0.00,WUHU21623XXSP,2013-04-07 09:10:00,
2013-04-07 05:15:00,69.8,61.4,29.47,ENE,67,0.0,0.0,75,0.00,,,0.00,WUHU21623XXSP,2013-04-07 09:15:00,
2013-04-07 05:20:00,69.6,61.3,29.48,NE,45,0.0,0.0,75,0.00,,,0.00,WUHU21623XXSP,2013-04-07 09:20:00,
2013-04-07 05:25:00,70.0,61.2,29.48,ESE,112,0.0,0.0,74,0.00,,,0.00,WUHU21623XXSP,2013-04-07 09:25:00,
2013-04-07 05:30:00,70.0,61.2,29.47,East,90,0.0,0.0,74,0.00,,,0.00,WUHU21623XXSP,2013-04-07 09:30:00,
2013-04-07 05:35:00,70.2,61.0,29.47,ESE,112,0.0,0.0,73,0.00,,,0.00,WUHU21623XXSP,2013-04-07 09:35:00,
2013-04-07 05:40:00,70.2,61.0,29.47,SE,135,0.0,0.0,73,0.00,,,0.00,WUHU21623XXSP,2013-04-07 09:40:00,
2013-04-07 05:45:00,70.2,61.0,29.48,ESE,112,0.0,0.0,73,0.00,,,0.00,WUHU21623XXSP,2013-04-07 09:45:00,
2013-04-07 05:50:00,70.0,60.9,29.48,East,90,0.0,0.0,73,0.00,,,0.00,WUHU21623XXSP,2013-04-07 09:50:00,
2013-04-07 05:55:00,70.0,60.9,29.48,NE,45,0.0,0.0,73,0.00,,,0.00,WUHU21623XXSP,2013-04-07 09:55:00,
2013-04-07 06:00:00,70.0,60.9,29.48,SE,135,0.0,0.0,73,0.00,,,0.00,WUHU21623XXSP,2013-04-07 10:00:00,
2013-04-07 06:05:00,70.0,60.9,29.48,East,90,0.0,0.0,73,0.00,,,0.00,WUHU21623XXSP,2013-04-07 10:05:00,
2013-04-07 06:10:00,70.0,60.5,29.48,NE,45,0.0,0.0,72,0.00,,,0.00,WUHU21623XXSP,2013-04-07 10:10:00,
2013-04-07 06:15:00,70.0,60.5,29.49,ESE,112,0.0,0.0,72,0.00,,,0.00,WUHU21623XXSP,2013-04-07 10:15:00,
2013-04-07 06:20:00,70.0,60.5,29.48,SE,135,0.0,0.0,72,0.00,,,0.00,WUHU21623XXSP,2013-04-07 10:20:00,
2013-04-07 06:25:00,70.0,60.5,29.48,SSE,157,0.0,0.0,72,0.00,,,0.00,WUHU21623XXSP,2013-04-07 10:25:00,
2013-04-07 06:30:00,70.0,60.5,29.48,SE,135,0.0,0.0,72,0.00,,,0.00,WUHU21623XXSP,2013-04-07 10:30:00,
2013-04-07 06:35:00,69.8,60.7,29.48,SE,135,0.0,0.0,73,0.00,,,0.00,WUHU21623XXSP,2013-04-07 10:35:00,
2013-04-07 06:40:00,69.6,60.5,29.48,NNE,22,0.0,0.0,73,0.00,,,0.00,WUHU21623XXSP,2013-04-07 10:40:00,
2013-04-07 06:45:00,69.6,60.5,29.49,East,90,0.0,0.0,73,0.00,,,0.00,WUHU21623XXSP,2013-04-07 10:45:00,
2013-04-07 06:50:00,69.6,60.5,29.49,East,90,0.0,0.0,73,0.00,,,0.00,WUHU21623XXSP,2013-04-07 10:50:00,
2013-04-07 06:55:00,69.6,60.5,29.49,East,90,0.0,0.0,73,0.00,,,0.00,WUHU21623XXSP,2013-04-07 10:55:00,
2013-04-07 07:00:00,69.6,60.5,29.50,SE,135,0.0,0.0,73,0.00,,,0.00,WUHU21623XXSP,2013-04-07 11:00:00,
2013-04-07 07:05:00,69.6,60.5,29.50,ESE,112,0.0,0.0,73,0.00,,,0.00,WUHU21623XXSP,2013-04-07 11:05:00,
2013-04-07 07:10:00,69.6,60.5,29.50,East,90,0.0,0.0,73,0.00,,,0.00,WUHU21623XXSP,2013-04-07 11:10:00,
2013-04-07 07:15:00,69.4,60.4,29.50,ENE,67,0.0,0.0,73,0.00,,,0.00,WUHU21623XXSP,2013-04-07 11:15:00,
2013-04-07 07:20:00,69.6,60.5,29.50,East,90,0.0,0.0,73,0.00,,,0.00,WUHU21623XXSP,2013-04-07 11:20:00,
2013-04-07 07:25:00,69.6,60.1,29.50,ESE,112,0.0,0.0,72,0.00,,,0.00,WUHU21623XXSP,2013-04-07 11:25:00,
2013-04-07 07:30:00,69.6,60.1,29.50,ENE,67,0.0,0.0,72,0.00,,,0.00,WUHU21623XXSP,2013-04-07 11:30:00,
2013-04-07 07:35:00,69.6,60.1,29.51,ESE,112,0.0,0.0,72,0.00,,,0.00,WUHU21623XXSP,2013-04-07 11:35:00,
2013-04-07 07:40:00,69.6,60.1,29.51,NE,45,0.0,0.0,72,0.00,,,0.00,WUHU21623XXSP,2013-04-07 11:40:00,
2013-04-07 07:45:00,70.2,60.7,29.51,NE,45,0.0,0.0,72,0.00,,,0.00,WUHU21623XXSP,2013-04-07 11:45:00,
2013-04-07 07:50:00,70.7,60.8,29.52,NE,45,0.0,0.0,71,0.00,,,0.00,WUHU21623XXSP,2013-04-07 11:50:00,
2013-04-07 07:55:00,70.9,61.0,29.51,ESE,112,0.0,0.0,71,0.00,,,0.00,WUHU21623XXSP,2013-04-07 11:55:00,
2013-04-07 08:00:00,71.2,61.0,29.52,ENE,67,0.0,0.0,70,0.00,,,0.00,WUHU21623XXSP,2013-04-07 12:00:00,
2013-04-07 08:06:00,71.4,61.2,29.53,ESE,112,0.0,0.0,70,0.00,,,0.00,WUHU21623XXSP,2013-04-07 12:06:00,
2013-04-07 08:11:00,71.4,61.2,29.53,SE,135,0.0,0.0,70,0.00,,,0.00,WUHU21623XXSP,2013-04-07 12:11:00,
2013-04-07 08:16:00,71.6,61.3,29.53,ENE,67,0.0,0.0,70,0.00,,,0.00,WUHU21623XXSP,2013-04-07 12:16:00,
2013-04-07 08:21:00,71.6,61.3,29.53,ENE,67,0.0,0.0,70,0.00,,,0.00,WUHU21623XXSP,2013-04-07 12:21:00,
2013-04-07 08:26:00,71.8,61.5,29.53,SE,135,0.0,0.0,70,0.00,,,0.00,WUHU21623XXSP,2013-04-07 12:26:00,
2013-04-07 08:31:00,71.8,61.9,29.53,ENE,67,0.0,0.0,71,0.00,,,0.00,WUHU21623XXSP,2013-04-07 12:31:00,
2013-04-07 08:36:00,71.8,61.9,29.53,East,90,0.0,0.0,71,0.00,,,0.00,WUHU21623XXSP,2013-04-07 12:36:00,
2013-04-07 08:41:00,71.8,61.9,29.53,NE,45,0.0,0.0,71,0.00,,,0.00,WUHU21623XXSP,2013-04-07 12:41:00,
2013-04-07 08:46:00,72.1,61.9,29.54,East,90,0.0,0.0,70,0.00,,,0.00,WUHU21623XXSP,2013-04-07 12:46:00,
2013-04-07 08:51:00,72.9,62.2,29.54,ESE,112,0.0,0.0,69,0.00,,,0.00,WUHU21623XXSP,2013-04-07 12:51:00,
2013-04-07 08:56:00,73.2,62.5,29.54,ESE,112,0.0,0.0,69,0.00,,,0.00,WUHU21623XXSP,2013-04-07 12:56:00,
2013-04-07 09:01:00,73.8,62.6,29.54,NE,45,0.0,0.0,68,0.00,,,0.00,WUHU21623XXSP,2013-04-07 13:01:00,
2013-04-07 09:06:00,73.4,61.8,29.54,East,90,0.0,0.0,67,0.00,,,0.00,WUHU21623XXSP,2013-04-07 13:06:00,
2013-04-07 09:11:00,73.2,61.6,29.55,NE,45,0.0,0.0,67,0.00,,,0.00,WUHU21623XXSP,2013-04-07 13:11:00,
2013-04-07 09:16:00,73.2,62.1,29.55,NNE,22,0.0,0.0,68,0.00,,,0.00,WUHU21623XXSP,2013-04-07 13:16:00,
2013-04-07 09:21:00,72.7,62.0,29.55,NE,45,0.0,0.0,69,0.00,,,0.00,WUHU21623XXSP,2013-04-07 13:21:00,
2013-04-07 09:26:00,72.5,61.8,29.55,NE,45,0.0,0.0,69,0.00,,,0.00,WUHU21623XXSP,2013-04-07 13:26:00,
2013-04-07 09:32:00,72.7,62.0,29.55,NE,45,0.0,0.0,69,0.00,,,0.00,WUHU21623XXSP,2013-04-07 13:32:00,
2013-04-07 09:37:00,72.9,62.2,29.55,East,90,0.0,0.0,69,0.00,,,0.00,WUHU21623XXSP,2013-04-07 13:37:00,
2013-04-07 09:42:00,73.8,62.1,29.55,SSE,157,0.0,0.0,67,0.00,,,0.00,WUHU21623XXSP,2013-04-07 13:42:00,
2013-04-07 09:47:00,74.1,62.0,29.56,NE,45,0.0,0.0,66,0.00,,,0.00,WUHU21623XXSP,2013-04-07 13:47:00,
2013-04-07 09:52:00,73.9,61.8,29.56,ENE,67,0.0,0.0,66,0.00,,,0.00,WUHU21623XXSP,2013-04-07 13:52:00,
2013-04-07 09:57:00,73.6,61.5,29.56,ENE,67,0.0,0.0,66,0.00,,,0.00,WUHU21623XXSP,2013-04-07 13:57:00,
2013-04-07 10:02:00,73.9,61.8,29.57,NE,45,0.0,0.0,66,0.00,,,0.00,WUHU21623XXSP,2013-04-07 14:02:00,
2013-04-07 10:07:00,73.9,61.8,29.57,NE,45,0.0,0.0,66,0.00,,,0.00,WUHU21623XXSP,2013-04-07 14:07:00,
2013-04-07 10:12:00,74.5,62.8,29.57,SE,135,0.0,0.0,67,0.00,,,0.00,WUHU21623XXSP,2013-04-07 14:12:00,
2013-04-07 10:17:00,74.5,62.3,29.57,East,90,0.0,0.0,66,0.00,,,0.00,WUHU21623XXSP,2013-04-07 14:17:00,
2013-04-07 10:22:00,74.5,62.3,29.57,NE,45,0.0,0.0,66,0.00,,,0.00,WUHU21623XXSP,2013-04-07 14:22:00,
2013-04-07 10:27:00,75.7,63.1,29.58,ENE,67,0.0,0.0,65,0.00,,,0.00,WUHU21623XXSP,2013-04-07 14:27:00,
2013-04-07 10:32:00,75.7,62.7,29.58,NE,45,0.0,0.0,64,0.00,,,0.00,WUHU21623XXSP,2013-04-07 14:32:00,
2013-04-07 10:37:00,75.4,61.9,29.58,NE,45,0.0,0.0,63,0.00,,,0.00,WUHU21623XXSP,2013-04-07 14:37:00,
2013-04-07 10:43:00,75.4,62.3,29.58,NE,45,0.0,0.0,64,0.00,,,0.00,WUHU21623XXSP,2013-04-07 14:43:00,
2013-04-07 10:48:00,76.3,62.7,29.58,NE,45,0.0,0.0,63,0.00,,,0.00,WUHU21623XXSP,2013-04-07 14:48:00,
2013-04-07 10:53:00,76.5,62.0,29.58,NE,45,0.0,0.0,61,0.00,,,0.00,WUHU21623XXSP,2013-04-07 14:53:00,
2013-04-07 10:58:00,76.8,61.9,29.58,North,0,0.0,0.0,60,0.00,,,0.00,WUHU21623XXSP,2013-04-07 14:58:00,
2013-04-07 11:03:00,76.5,62.5,29.58,ESE,112,0.0,0.0,62,0.00,,,0.00,WUHU21623XXSP,2013-04-07 15:03:00,
2013-04-07 11:08:00,75.9,62.4,29.58,East,90,0.0,0.0,63,0.00,,,0.00,WUHU21623XXSP,2013-04-07 15:08:00,
2013-04-07 11:13:00,75.7,62.7,29.58,East,90,0.0,0.0,64,0.00,,,0.00,WUHU21623XXSP,2013-04-07 15:13:00,
2013-04-07 11:18:00,75.6,62.1,29.58,ENE,67,0.0,0.0,63,0.00,,,0.00,WUHU21623XXSP,2013-04-07 15:18:00,
2013-04-07 11:23:00,75.9,62.4,29.58,ENE,67,0.0,0.0,63,0.00,,,0.00,WUHU21623XXSP,2013-04-07 15:23:00,
2013-04-07 11:28:00,76.1,62.1,29.58,NE,45,0.0,0.0,62,0.00,,,0.00,WUHU21623XXSP,2013-04-07 15:28:00,
2013-04-07 11:33:00,75.7,62.2,29.58,NE,45,0.0,0.0,63,0.00,,,0.00,WUHU21623XXSP,2013-04-07 15:33:00,
2013-04-07 11:38:00,75.4,61.9,29.58,ENE,67,0.0,0.0,63,0.00,,,0.00,WUHU21623XXSP,2013-04-07 15:38:00,
2013-04-07 11:43:00,75.0,62.0,29.58,ENE,67,0.0,0.0,64,0.00,,,0.00,WUHU21623XXSP,2013-04-07 15:43:00,
2013-04-07 11:48:00,75.0,62.0,29.58,SSE,157,0.0,0.0,64,0.00,,,0.00,WUHU21623XXSP,2013-04-07 15:48:00,
2013-04-07 11:53:00,75.4,62.3,29.59,East,90,0.0,0.0,64,0.00,,,0.00,WUHU21623XXSP,2013-04-07 15:53:00,
2013-04-07 11:58:00,75.0,61.6,29.59,East,90,0.0,0.0,63,0.00,,,0.00,WUHU21623XXSP,2013-04-07 15:58:00,
2013-04-07 12:03:00,75.4,62.3,29.58,ESE,112,0.0,0.0,64,0.00,,,0.00,WUHU21623XXSP,2013-04-07 16:03:00,
2013-04-07 12:08:00,75.7,62.2,29.58,NE,45,0.0,0.0,63,0.00,,,0.00,WUHU21623XXSP,2013-04-07 16:08:00,
2013-04-07 12:13:00,75.6,62.1,29.58,NE,45,0.0,0.0,63,0.00,,,0.00,WUHU21623XXSP,2013-04-07 16:13:00,
2013-04-07 12:18:00,75.4,62.3,29.58,SE,135,0.0,0.0,64,0.00,,,0.00,WUHU21623XXSP,2013-04-07 16:18:00,
2013-04-07 12:23:00,75.4,61.9,29.58,East,90,0.0,0.0,63,0.00,,,0.00,WUHU21623XXSP,2013-04-07 16:23:00,
2013-04-07 12:28:00,75.2,61.7,29.58,ESE,112,0.0,0.0,63,0.00,,,0.00,WUHU21623XXSP,2013-04-07 16:28:00,
2013-04-07 12:33:00,75.4,61.9,29.58,NE,45,0.0,0.0,63,0.00,,,0.00,WUHU21623XXSP,2013-04-07 16:33:00,
2013-04-07 12:38:00,75.6,62.1,29.58,NE,45,0.0,0.0,63,0.00,,,0.00,WUHU21623XXSP,2013-04-07 16:38:00,
2013-04-07 12:43:00,75.9,62.4,29.58,ESE,112,0.0,0.0,63,0.00,,,0.00,WUHU21623XXSP,2013-04-07 16:43:00,
2013-04-07 12:48:00,75.9,62.0,29.58,ESE,112,0.0,0.0,62,0.00,,,0.00,WUHU21623XXSP,2013-04-07 16:48:00,
2013-04-07 12:53:00,75.9,62.0,29.58,ESE,112,0.0,0.0,62,0.00,,,0.00,WUHU21623XXSP,2013-04-07 16:53:00,
2013-04-07 12:58:00,76.6,61.7,29.57,NE,45,0.0,0.0,60,0.00,,,0.00,WUHU21623XXSP,2013-04-07 16:58:00,
2013-04-07 13:03:00,76.8,61.9,29.57,ENE,67,0.0,0.0,60,0.00,,,0.00,WUHU21623XXSP,2013-04-07 17:03:00,
2013-04-07 13:08:00,76.6,61.7,29.57,NE,45,0.0,0.0,60,0.00,,,0.00,WUHU21623XXSP,2013-04-07 17:08:00,
2013-04-07 13:13:00,77.7,61.8,29.57,ENE,67,0.0,0.0,58,0.00,,,0.00,WUHU21623XXSP,2013-04-07 17:13:00,
2013-04-07 13:19:00,78.4,62.5,29.57,NE,45,0.0,0.0,58,0.02,,,0.02,WUHU21623XXSP,2013-04-07 17:19:00,
2013-04-07 13:24:00,77.4,61.4,29.57,SE,135,0.0,0.0,58,0.02,,,0.02,WUHU21623XXSP,2013-04-07 17:24:00,
2013-04-07 13:29:00,76.5,61.1,29.57,SE,135,0.0,0.0,59,0.02,,,0.02,WUHU21623XXSP,2013-04-07 17:29:00,
2013-04-07 13:34:00,76.1,60.7,29.57,ESE,112,0.0,0.0,59,0.02,,,0.02,WUHU21623XXSP,2013-04-07 17:34:00,
2013-04-07 13:39:00,76.8,61.9,29.57,NNE,22,0.0,0.0,60,0.02,,,0.02,WUHU21623XXSP,2013-04-07 17:39:00,
2013-04-07 13:44:00,77.4,61.4,29.57,NNE,22,0.0,0.0,58,0.02,,,0.02,WUHU21623XXSP,2013-04-07 17:44:00,
2013-04-07 13:49:00,77.5,61.1,29.57,NNE,22,0.0,0.0,57,0.02,,,0.02,WUHU21623XXSP,2013-04-07 17:49:00,
2013-04-07 13:54:00,78.1,62.1,29.57,ENE,67,0.0,0.0,58,0.02,,,0.02,WUHU21623XXSP,2013-04-07 17:54:00,
2013-04-07 13:59:00,78.6,62.1,29.56,NE,45,0.0,0.0,57,0.02,,,0.02,WUHU21623XXSP,2013-04-07 17:59:00,
2013-04-07 14:04:00,78.6,62.1,29.56,ENE,67,0.0,0.0,57,0.02,,,0.02,WUHU21623XXSP,2013-04-07 18:04:00,
2013-04-07 14:09:00,78.1,61.1,29.55,ESE,112,0.0,0.0,56,0.02,,,0.02,WUHU21623XXSP,2013-04-07 18:09:00,
2013-04-07 14:14:00,79.0,61.9,29.55,ENE,67,0.0,0.0,56,0.00,,,0.02,WUHU21623XXSP,2013-04-07 18:14:00,
2013-04-07 14:19:00,81.1,62.8,29.55,ESE,112,0.0,0.0,54,0.00,,,0.02,WUHU21623XXSP,2013-04-07 18:19:00,
2013-04-07 14:24:00,80.8,62.0,29.55,North,0,0.0,0.0,53,0.00,,,0.02,WUHU21623XXSP,2013-04-07 18:24:00,
2013-04-07 14:29:00,81.5,63.2,29.55,NE,45,0.0,0.0,54,0.00,,,0.02,WUHU21623XXSP,2013-04-07 18:29:00,
2013-04-07 14:35:00,82.2,62.2,29.54,ESE,112,0.0,0.0,51,0.00,,,0.02,WUHU21623XXSP,2013-04-07 18:35:00,
2013-04-07 14:40:00,82.6,62.6,29.54,East,90,0.0,0.0,51,0.00,,,0.02,WUHU21623XXSP,2013-04-07 18:40:00,
2013-04-07 14:45:00,82.9,62.9,29.54,SSE,157,0.0,0.0,51,0.00,,,0.02,WUHU21623XXSP,2013-04-07 18:45:00,
2013-04-07 14:50:00,84.7,64.2,29.54,SE,135,0.0,0.0,50,0.00,,,0.02,WUHU21623XXSP,2013-04-07 18:50:00,
2013-04-07 14:55:00,84.0,62.9,29.54,NE,45,0.0,0.0,49,0.00,,,0.02,WUHU21623XXSP,2013-04-07 18:55:00,
2013-04-07 15:00:00,83.1,63.1,29.54,SE,135,0.0,0.0,51,0.00,,,0.02,WUHU21623XXSP,2013-04-07 19:00:00,
2013-04-07 15:05:00,82.2,61.7,29.53,East,90,0.0,0.0,50,0.00,,,0.02,WUHU21623XXSP,2013-04-07 19:05:00,
2013-04-07 15:10:00,82.6,62.6,29.53,SE,135,0.0,0.0,51,0.00,,,0.02,WUHU21623XXSP,2013-04-07 19:10:00,
2013-04-07 15:15:00,81.3,62.5,29.53,SE,135,0.0,0.0,53,0.00,,,0.02,WUHU21623XXSP,2013-04-07 19:15:00,
2013-04-07 15:20:00,81.3,62.0,29.53,East,90,0.0,0.0,52,0.00,,,0.02,WUHU21623XXSP,2013-04-07 19:20:00,
2013-04-07 15:25:00,80.6,62.3,29.53,ESE,112,0.0,0.0,54,0.00,,,0.02,WUHU21623XXSP,2013-04-07 19:25:00,
2013-04-07 15:30:00,80.2,62.0,29.53,ESE,112,0.0,0.0,54,0.00,,,0.02,WUHU21623XXSP,2013-04-07 19:30:00,
2013-04-07 15:35:00,80.4,62.2,29.53,East,90,0.0,0.0,54,0.00,,,0.02,WUHU21623XXSP,2013-04-07 19:35:00,
2013-04-07 15:40:00,80.4,61.7,29.53,NE,45,0.0,0.0,53,0.00,,,0.02,WUHU21623XXSP,2013-04-07 19:40:00,
2013-04-07 15:45:00,81.0,62.7,29.53,ENE,67,0.0,0.0,54,0.00,,,0.02,WUHU21623XXSP,2013-04-07 19:45:00,
2013-04-07 15:50:00,80.1,62.4,29.53,SE,135,0.0,0.0,55,0.00,,,0.02,WUHU21623XXSP,2013-04-07 19:50:00,
2013-04-07 15:55:00,79.3,62.3,29.53,ENE,67,0.0,0.0,56,0.00,,,0.02,WUHU21623XXSP,2013-04-07 19:55:00,
2013-04-07 16:00:00,79.3,62.8,29.53,ESE,112,0.0,0.0,57,0.00,,,0.02,WUHU21623XXSP,2013-04-07 20:00:00,
2013-04-07 16:05:00,79.3,62.8,29.53,NNE,22,0.0,0.0,57,0.00,,,0.02,WUHU21623XXSP,2013-04-07 20:05:00,
2013-04-07 16:10:00,78.6,62.6,29.53,SE,135,0.0,0.0,58,0.00,,,0.02,WUHU21623XXSP,2013-04-07 20:10:00,
2013-04-07 16:15:00,78.1,62.1,29.53,NE,45,0.0,0.0,58,0.00,,,0.02,WUHU21623XXSP,2013-04-07 20:15:00,
2013-04-07 16:20:00,77.9,61.9,29.53,NE,45,0.0,0.0,58,0.00,,,0.02,WUHU21623XXSP,2013-04-07 20:20:00,
2013-04-07 16:25:00,77.7,62.3,29.52,NE,45,0.0,0.0,59,0.00,,,0.02,WUHU21623XXSP,2013-04-07 20:25:00,
2013-04-07 16:30:00,77.5,62.6,29.53,SE,135,0.0,0.0,60,0.00,,,0.02,WUHU21623XXSP,2013-04-07 20:30:00,
2013-04-07 16:35:00,77.2,62.2,29.53,SE,135,0.0,0.0,60,0.00,,,0.02,WUHU21623XXSP,2013-04-07 20:35:00,
2013-04-07 16:40:00,76.8,61.9,29.53,East,90,0.0,0.0,60,0.00,,,0.02,WUHU21623XXSP,2013-04-07 20:40:00,
2013-04-07 16:45:00,76.3,61.4,29.53,ENE,67,0.0,0.0,60,0.00,,,0.02,WUHU21623XXSP,2013-04-07 20:45:00,
2013-04-07 16:50:00,76.1,61.3,29.53,ESE,112,0.0,0.0,60,0.00,,,0.02,WUHU21623XXSP,2013-04-07 20:50:00,
2013-04-07 16:55:00,76.3,61.8,29.53,ESE,112,0.0,0.0,61,0.00,,,0.02,WUHU21623XXSP,2013-04-07 20:55:00,
2013-04-07 17:00:00,76.5,61.6,29.53,NE,45,0.0,0.0,60,0.00,,,0.02,WUHU21623XXSP,2013-04-07 21:00:00,
2013-04-07 17:05:00,76.5,61.6,29.53,SE,135,0.0,0.0,60,0.00,,,0.02,WUHU21623XXSP,2013-04-07 21:05:00,
2013-04-07 17:10:00,76.5,61.6,29.53,SE,135,0.0,0.0,60,0.00,,,0.02,WUHU21623XXSP,2013-04-07 21:10:00,
2013-04-07 17:15:00,76.5,61.6,29.53,ESE,112,0.0,0.0,60,0.00,,,0.02,WUHU21623XXSP,2013-04-07 21:15:00,
2013-04-07 17:20:00,76.8,61.9,29.53,ESE,112,0.0,0.0,60,0.00,,,0.02,WUHU21623XXSP,2013-04-07 21:20:00,
2013-04-07 17:25:00,76.8,61.9,29.53,ENE,67,0.0,0.0,60,0.00,,,0.02,WUHU21623XXSP,2013-04-07 21:25:00,
2013-04-07 17:30:00,76.5,61.6,29.53,SE,135,0.0,0.0,60,0.00,,,0.02,WUHU21623XXSP,2013-04-07 21:30:00,
2013-04-07 17:35:00,76.8,61.9,29.53,SE,135,0.0,0.0,60,0.00,,,0.02,WUHU21623XXSP,2013-04-07 21:35:00,
2013-04-07 17:40:00,76.8,61.9,29.53,SE,135,0.0,0.0,60,0.00,,,0.02,WUHU21623XXSP,2013-04-07 21:40:00,
2013-04-07 17:46:00,76.8,61.9,29.53,NE,45,0.0,0.0,60,0.00,,,0.02,WUHU21623XXSP,2013-04-07 21:46:00,
2013-04-07 17:51:00,76.8,61.9,29.53,SE,135,0.0,0.0,60,0.00,,,0.02,WUHU21623XXSP,2013-04-07 21:51:00,
2013-04-07 17:56:00,75.9,61.1,29.53,ESE,112,0.0,0.0,60,0.00,,,0.02,WUHU21623XXSP,2013-04-07 21:56:00,
2013-04-07 18:01:00,76.3,61.4,29.53,SE,135,0.0,0.0,60,0.00,,,0.02,WUHU21623XXSP,2013-04-07 22:01:00,
2013-04-07 18:06:00,76.3,61.4,29.53,ESE,112,0.0,0.0,60,0.00,,,0.02,WUHU21623XXSP,2013-04-07 22:06:00,
2013-04-07 18:11:00,75.9,60.6,29.53,SSE,157,0.0,0.0,59,0.00,,,0.02,WUHU21623XXSP,2013-04-07 22:11:00,
2013-04-07 18:16:00,75.9,60.6,29.53,ESE,112,0.0,0.0,59,0.00,,,0.02,WUHU21623XXSP,2013-04-07 22:16:00,
2013-04-07 18:21:00,75.9,60.6,29.53,ENE,67,0.0,0.0,59,0.00,,,0.02,WUHU21623XXSP,2013-04-07 22:21:00,
2013-04-07 18:26:00,75.9,60.6,29.53,ESE,112,0.0,0.0,59,0.00,,,0.02,WUHU21623XXSP,2013-04-07 22:26:00,
2013-04-07 18:31:00,75.7,60.9,29.53,ENE,67,0.0,0.0,60,0.00,,,0.02,WUHU21623XXSP,2013-04-07 22:31:00,
2013-04-07 18:36:00,75.6,60.8,29.53,SE,135,0.0,0.0,60,0.00,,,0.02,WUHU21623XXSP,2013-04-07 22:36:00,
2013-04-07 18:41:00,75.4,60.6,29.52,SE,135,0.0,0.0,60,0.00,,,0.02,WUHU21623XXSP,2013-04-07 22:41:00,
2013-04-07 18:46:00,75.2,60.9,29.52,SSE,157,0.0,0.0,61,0.00,,,0.02,WUHU21623XXSP,2013-04-07 22:46:00,
2013-04-07 18:52:00,75.2,60.9,29.52,ESE,112,0.0,0.0,61,0.00,,,0.02,WUHU21623XXSP,2013-04-07 22:52:00,
2013-04-07 18:57:00,75.0,60.7,29.52,SE,135,0.0,0.0,61,0.00,,,0.02,WUHU21623XXSP,2013-04-07 22:57:00,
2013-04-07 19:02:00,75.2,60.9,29.52,SE,135,0.0,0.0,61,0.00,,,0.02,WUHU21623XXSP,2013-04-07 23:02:00,
2013-04-07 19:07:00,75.0,61.1,29.52,SE,135,0.0,0.0,62,0.00,,,0.02,WUHU21623XXSP,2013-04-07 23:07:00,
2013-04-07 19:12:00,74.8,60.9,29.52,ENE,67,0.0,0.0,62,0.00,,,0.02,WUHU21623XXSP,2013-04-07 23:12:00,
2013-04-07 19:17:00,74.5,60.6,29.52,ESE,112,0.0,0.0,62,0.00,,,0.02,WUHU21623XXSP,2013-04-07 23:17:00,
2013-04-07 19:22:00,74.5,60.6,29.52,East,90,0.0,0.0,62,0.00,,,0.02,WUHU21623XXSP,2013-04-07 23:22:00,
2013-04-07 19:27:00,74.3,60.4,29.53,ESE,112,0.0,0.0,62,0.00,,,0.02,WUHU21623XXSP,2013-04-07 23:27:00,
2013-04-07 19:32:00,74.1,60.7,29.53,SE,135,0.0,0.0,63,0.00,,,0.02,WUHU21623XXSP,2013-04-07 23:32:00,
2013-04-07 19:37:00,73.9,60.5,29.53,SE,135,0.0,0.0,63,0.00,,,0.02,WUHU21623XXSP,2013-04-07 23:37:00,
2013-04-07 19:42:00,73.6,60.2,29.53,SE,135,0.0,0.0,63,0.00,,,0.02,WUHU21623XXSP,2013-04-07 23:42:00,
2013-04-07 19:47:00,73.6,60.2,29.52,ESE,112,0.0,0.0,63,0.00,,,0.02,WUHU21623XXSP,2013-04-07 23:47:00,
2013-04-07 19:52:00,73.4,60.0,29.52,SE,135,0.0,0.0,63,0.00,,,0.02,WUHU21623XXSP,2013-04-07 23:52:00,
2013-04-07 19:57:00,73.2,60.3,29.52,SE,135,0.0,0.0,64,0.00,,,0.02,WUHU21623XXSP,2013-04-07 23:57:00,
2013-04-07 20:02:00,73.0,60.1,29.53,SE,135,0.0,0.0,64,0.00,,,0.02,WUHU21623XXSP,2013-04-08 00:02:00,
2013-04-07 20:07:00,73.0,60.1,29.52,ESE,112,0.0,0.0,64,0.00,,,0.02,WUHU21623XXSP,2013-04-08 00:07:00,
2013-04-07 20:12:00,72.9,59.9,29.52,ESE,112,0.0,0.0,64,0.00,,,0.02,WUHU21623XXSP,2013-04-08 00:12:00,
2013-04-07 20:17:00,72.7,59.8,29.53,ESE,112,0.0,0.0,64,0.00,,,0.02,WUHU21623XXSP,2013-04-08 00:17:00,
2013-04-07 20:22:00,72.7,60.2,29.53,ESE,112,0.0,0.0,65,0.00,,,0.02,WUHU21623XXSP,2013-04-08 00:22:00,
2013-04-07 20:27:00,72.5,60.0,29.53,ESE,112,0.0,0.0,65,0.00,,,0.02,WUHU21623XXSP,2013-04-08 00:27:00,
2013-04-07 20:32:00,72.3,59.9,29.53,ESE,112,0.0,0.0,65,0.00,,,0.02,WUHU21623XXSP,2013-04-08 00:32:00,
2013-04-07 20:37:00,72.3,59.9,29.53,ESE,112,0.0,0.0,65,0.00,,,0.02,WUHU21623XXSP,2013-04-08 00:37:00,
2013-04-07 20:42:00,72.3,59.9,29.53,ESE,112,0.0,0.0,65,0.00,,,0.02,WUHU21623XXSP,2013-04-08 00:42:00,
2013-04-07 20:47:00,72.3,60.3,29.53,ESE,112,0.0,0.0,66,0.00,,,0.02,WUHU21623XXSP,2013-04-08 00:47:00,
2013-04-07 20:52:00,72.1,60.1,29.53,ESE,112,0.0,0.0,66,0.00,,,0.02,WUHU21623XXSP,2013-04-08 00:52:00,
2013-04-07 20:57:00,72.3,60.3,29.53,SE,135,0.0,0.0,66,0.00,,,0.02,WUHU21623XXSP,2013-04-08 00:57:00,
2013-04-07 21:02:00,72.1,60.1,29.53,ESE,112,0.0,0.0,66,0.00,,,0.02,WUHU21623XXSP,2013-04-08 01:02:00,
2013-04-07 21:07:00,72.1,60.1,29.53,ESE,112,0.0,0.0,66,0.00,,,0.02,WUHU21623XXSP,2013-04-08 01:07:00,
2013-04-07 21:12:00,72.1,60.1,29.54,East,90,0.0,0.0,66,0.00,,,0.02,WUHU21623XXSP,2013-04-08 01:12:00,
2013-04-07 21:17:00,72.0,60.0,29.53,ESE,112,0.0,0.0,66,0.00,,,0.02,WUHU21623XXSP,2013-04-08 01:17:00,
2013-04-07 21:22:00,72.0,60.0,29.54,NE,45,0.0,0.0,66,0.00,,,0.02,WUHU21623XXSP,2013-04-08 01:22:00,
2013-04-07 21:28:00,72.0,60.0,29.54,East,90,0.0,0.0,66,0.00,,,0.02,WUHU21623XXSP,2013-04-08 01:28:00,
2013-04-07 21:33:00,71.8,59.8,29.54,SE,135,0.0,0.0,66,0.00,,,0.02,WUHU21623XXSP,2013-04-08 01:33:00,
2013-04-07 21:38:00,71.8,59.8,29.54,ESE,112,0.0,0.0,66,0.00,,,0.02,WUHU21623XXSP,2013-04-08 01:38:00,
2013-04-07 21:43:00,71.8,60.2,29.55,ESE,112,0.0,0.0,67,0.00,,,0.02,WUHU21623XXSP,2013-04-08 01:43:00,
2013-04-07 21:48:00,71.8,60.2,29.55,ENE,67,0.0,0.0,67,0.00,,,0.02,WUHU21623XXSP,2013-04-08 01:48:00,
2013-04-07 21:53:00,71.8,60.2,29.55,ESE,112,0.0,0.0,67,0.00,,,0.02,WUHU21623XXSP,2013-04-08 01:53:00,
2013-04-07 21:58:00,71.8,60.2,29.55,SE,135,0.0,0.0,67,0.00,,,0.02,WUHU21623XXSP,2013-04-08 01:58:00,
2013-04-07 22:03:00,71.6,60.0,29.55,SE,135,0.0,0.0,67,0.00,,,0.02,WUHU21623XXSP,2013-04-08 02:03:00,
2013-04-07 22:08:00,71.8,60.6,29.55,East,90,0.0,0.0,68,0.00,,,0.02,WUHU21623XXSP,2013-04-08 02:08:00,
2013-04-07 22:13:00,71.8,60.6,29.55,ESE,112,0.0,0.0,68,0.00,,,0.02,WUHU21623XXSP,2013-04-08 02:13:00,
2013-04-07 22:18:00,71.8,60.6,29.55,SE,135,0.0,0.0,68,0.00,,,0.02,WUHU21623XXSP,2013-04-08 02:18:00,
2013-04-07 22:23:00,71.8,60.2,29.55,East,90,0.0,0.0,67,0.00,,,0.02,WUHU21623XXSP,2013-04-08 02:23:00,
2013-04-07 22:28:00,71.8,60.6,29.55,SSE,157,0.0,0.0,68,0.00,,,0.02,WUHU21623XXSP,2013-04-08 02:28:00,
2013-04-07 22:33:00,71.8,60.2,29.55,SE,135,0.0,0.0,67,0.00,,,0.02,WUHU21623XXSP,2013-04-08 02:33:00,
2013-04-07 22:38:00,71.8,60.2,29.55,ESE,112,0.0,0.0,67,0.00,,,0.02,WUHU21623XXSP,2013-04-08 02:38:00,
2013-04-07 22:43:00,71.4,59.9,29.55,SE,135,0.0,0.0,67,0.00,,,0.02,WUHU21623XXSP,2013-04-08 02:43:00,
2013-04-07 22:48:00,71.6,60.0,29.55,East,90,0.0,0.0,67,0.00,,,0.02,WUHU21623XXSP,2013-04-08 02:48:00,
2013-04-07 22:53:00,71.6,60.0,29.55,ESE,112,0.0,0.0,67,0.00,,,0.02,WUHU21623XXSP,2013-04-08 02:53:00,
2013-04-07 22:58:00,71.6,60.0,29.55,ESE,112,0.0,0.0,67,0.00,,,0.02,WUHU21623XXSP,2013-04-08 02:58:00,
2013-04-07 23:03:00,71.4,59.9,29.55,ESE,112,0.0,0.0,67,0.00,,,0.02,WUHU21623XXSP,2013-04-08 03:03:00,
2013-04-07 23:09:00,71.4,59.9,29.55,ESE,112,0.0,0.0,67,0.00,,,0.02,WUHU21623XXSP,2013-04-08 03:09:00,
2013-04-07 23:14:00,71.4,59.9,29.55,SE,135,0.0,0.0,67,0.00,,,0.02,WUHU21623XXSP,2013-04-08 03:14:00,
2013-04-07 23:19:00,71.2,59.7,29.55,ESE,112,0.0,0.0,67,0.00,,,0.02,WUHU21623XXSP,2013-04-08 03:19:00,
2013-04-07 23:24:00,71.2,59.7,29.55,ESE,112,0.0,0.0,67,0.00,,,0.02,WUHU21623XXSP,2013-04-08 03:24:00,
2013-04-07 23:29:00,71.1,59.5,29.55,SE,135,0.0,0.0,67,0.00,,,0.02,WUHU21623XXSP,2013-04-08 03:29:00,
2013-04-07 23:34:00,70.9,59.3,29.55,SE,135,0.0,0.0,67,0.00,,,0.02,WUHU21623XXSP,2013-04-08 03:34:00,
2013-04-07 23:39:00,70.9,59.3,29.55,SE,135,0.0,0.0,67,0.00,,,0.02,WUHU21623XXSP,2013-04-08 03:39:00,
2013-04-07 23:44:00,70.9,59.3,29.55,ESE,112,0.0,0.0,67,0.00,,,0.02,WUHU21623XXSP,2013-04-08 03:44:00,
2013-04-07 23:49:00,70.9,59.3,29.55,ESE,112,0.0,0.0,67,0.00,,,0.02,WUHU21623XXSP,2013-04-08 03:49:00,
2013-04-07 23:55:00,70.9,59.3,29.55,ENE,67,0.0,0.0,67,0.00,,,0.02,WUHU21623XXSP,2013-04-08 03:55:00,